Date,TemperatureHighF,TemperatureAvgF,TemperatureLowF,DewpointHighF,DewpointAvgF,DewpointLowF,HumidityHigh,HumidityAvg,HumidityLow,PressureMaxIn,PressureMinIn,WindSpeedMaxMPH,WindSpeedAvgMPH,GustSpeedMaxMPH,PrecipitationSumIn
2013-5-1,85.7,74.5,65.2,20.3,2.6,-9.3,9,6,3,30.28,29.69,22,10,29,0.00
2013-5-2,81.5,70.1,60.0,17.7,7.8,1.5,15,9,5,30.40,30.11,19,8,27,0.00
2013-5-3,91.1,75.5,57.0,21.6,8.1,-23.3,25,10,1,30.12,29.74,7,1,11,0.00
2013-5-4,94.9,78.6,56.7,30.8,15.8,4.3,35,12,4,29.74,29.53,12,3,19,0.00
2013-5-5,83.2,76.4,66.7,30.8,25.1,19.8,26,15,11,29.75,29.62,20,5,25,0.00
2013-5-6,77.1,70.2,64.1,52.1,38.7,28.3,65,32,21,29.87,29.75,18,5,32,0.25
2013-5-7,75.3,66.6,60.5,42.4,39.7,36.4,47,38,25,29.91,29.83,19,4,25,0.00
2013-5-8,80.1,69.4,60.4,42.9,40.6,37.7,50,36,23,30.01,29.91,15,2,21,0.00
2013-5-9,81.2,71.2,58.1,48.0,42.5,38.7,56,37,22,30.00,29.91,13,3,19,0.00
2013-5-10,90.8,77.1,59.5,48.8,42.2,32.4,61,33,13,30.06,29.95,11,2,21,0.00
2013-5-11,97.8,82.9,65.7,44.1,37.5,28.4,41,23,9,30.12,29.99,7,2,14,0.00
2013-5-12,103.3,86.3,66.9,43.2,33.0,24.5,38,17,7,30.11,29.91,9,1,10,0.00
2013-5-13,105.8,89.4,68.5,40.7,32.2,24.0,34,16,6,30.00,29.80,9,2,15,0.00
2013-5-14,102.7,90.4,72.6,39.2,27.9,7.3,27,12,4,29.85,29.66,19,6,31,0.00
2013-5-15,100.8,87.8,73.8,41.2,32.1,23.7,29,14,9,29.84,29.68,16,5,22,0.00
2013-5-16,96.9,86.2,75.6,36.0,28.9,14.6,22,14,5,29.77,29.62,23,7,24,0.00
2013-5-17,87.3,79.2,72.4,41.2,37.2,31.5,30,22,17,29.82,29.68,17,7,27,0.03
2013-5-18,93.2,80.7,66.6,43.8,36.2,18.6,40,23,8,29.90,29.76,10,3,18,0.00
2013-5-19,90.0,80.3,66.1,37.0,28.9,19.9,30,16,8,29.95,29.79,16,6,23,0.00
2013-5-20,89.2,78.1,66.7,37.3,26.6,19.0,32,17,8,30.04,29.88,14,4,21,0.00
2013-5-21,96.3,82.6,65.0,37.6,27.1,8.7,26,15,4,29.91,29.60,19,4,25,0.00
2013-5-22,94.3,84.6,75.9,34.1,23.7,-7.4,20,13,2,29.64,29.50,26,11,35,0.00
2013-5-23,89.5,79.1,67.0,34.2,14.1,-23.6,24,11,1,29.76,29.56,24,9,36,0.00
2013-5-24,93.4,81.0,63.4,27.4,19.1,7.7,23,10,6,29.87,29.71,16,4,24,0.00
2013-5-25,94.0,82.1,70.8,32.4,22.1,9.8,24,12,5,29.84,29.73,18,5,23,0.00
2013-5-26,91.4,82.6,71.5,33.2,29.7,24.6,23,15,10,29.84,29.74,19,8,29,0.00
2013-5-27,94.9,82.9,68.9,37.8,31.6,23.5,29,17,8,29.84,29.64,18,5,21,0.00
2013-5-28,93.8,83.5,72.0,37.6,30.3,13.2,26,16,7,29.70,29.54,19,6,26,0.00
2013-5-29,93.5,82.4,70.1,38.9,33.8,30.4,26,18,11,29.77,29.57,11,3,15,0.00
2013-5-30,100.4,87.5,68.5,40.3,30.4,20.6,33,14,7,29.80,29.63,14,3,17,0.00
2013-5-31,99.2,88.2,71.9,32.8,24.0,14.6,20,10,5,29.91,29.70,18,3,22,0.00